This is the latest recevied weather packets stored in our database for station/object SV5BYP-10. If no packets are shown the sender has not sent any weather packets the latest 10 day(s).
| Time | Temp. | Humidity | Pressure | Rain* | Wind** | Luminosity | Snow |
|---|---|---|---|---|---|---|---|
| 1777749458 | 21.11° C | 47% | 1010.1 hPa | - | - | - | - |
| 1777748857 | 21.11° C | 47% | 1010.2 hPa | - | - | - | - |
| 1777748257 | 21.11° C | 46% | 1010.1 hPa | - | - | - | - |
| 1777747657 | 21.67° C | 46% | 1010.1 hPa | - | - | - | - |
| 1777747057 | 21.67° C | 46% | 1010.1 hPa | - | - | - | - |
| 1777746457 | 21.67° C | 47% | 1010.1 hPa | - | - | - | - |
| 1777745857 | 22.22° C | 46% | 1010.1 hPa | - | - | - | - |
| 1777745256 | 22.22° C | 46% | 1010.1 hPa | - | - | - | - |
| 1777744656 | 22.22° C | 46% | 1010.1 hPa | - | - | - | - |
| 1777744056 | 23.33° C | 45% | 1010.2 hPa | - | - | - | - |
| 1777743456 | 23.89° C | 44% | 1010.2 hPa | - | - | - | - |
| 1777742856 | 23.89° C | 44% | 1010.2 hPa | - | - | - | - |
| 1777742256 | 23.33° C | 45% | 1010.1 hPa | - | - | - | - |
| 1777741655 | 22.78° C | 46% | 1010.3 hPa | - | - | - | - |
| 1777741055 | 22.78° C | 46% | 1010.2 hPa | - | - | - | - |
| 1777740455 | 22.78° C | 47% | 1010.3 hPa | - | - | - | - |
| 1777739855 | 22.78° C | 47% | 1010.2 hPa | - | - | - | - |
| 1777739255 | 22.78° C | 47% | 1010.2 hPa | - | - | - | - |
| 1777738655 | 22.78° C | 47% | 1010.4 hPa | - | - | - | - |
| 1777738054 | 22.78° C | 47% | 1010.2 hPa | - | - | - | - |
| 1777737454 | 22.78° C | 47% | 1010.2 hPa | - | - | - | - |
| 1777736854 | 22.78° C | 48% | 1010.3 hPa | - | - | - | - |
| 1777736254 | 22.78° C | 48% | 1010.3 hPa | - | - | - | - |
| 1777735654 | 22.78° C | 48% | 1010.4 hPa | - | - | - | - |
| 1777735054 | 22.78° C | 48% | 1010.4 hPa | - | - | - | - |
* Rain since midnight (hover to see other rain measurements)
** Current wind speed in m/s (hover to see current wind gust speed)